Time,TemperatureF,DewpointF,PressureIn,WindDirection,WindDirectionDegrees,WindSpeedMPH,WindSpeedGustMPH,Humidity,HourlyPrecipIn,Conditions,Clouds,dailyrainin,SolarRadiationWatts/m^2,SoftwareType,DateUTC
2013-12-03 00:02:00,26.0,22.0,-100.00,NE,34,6.0,13.0,85,0.00,,,0.69,0.000000,,2013-12-03 08:02:00,
2013-12-03 00:42:00,25.0,20.0,-100.00,NNE,27,5.0,16.0,82,0.00,,,0.42,0.000000,,2013-12-03 08:42:00,
2013-12-03 00:53:00,25.0,20.0,-100.00,NNE,27,5.0,16.0,82,0.00,,,0.42,0.000000,,2013-12-03 08:53:00,
2013-12-03 01:01:00,25.0,20.0,-100.00,NNE,27,5.0,16.0,82,0.00,,,0.42,0.000000,,2013-12-03 09:01:00,
2013-12-03 01:43:00,25.0,21.0,-100.00,NNE,25,5.0,13.0,84,0.00,,,0.16,0.000000,,2013-12-03 09:43:00,
2013-12-03 01:54:00,25.0,21.0,-100.00,NNE,25,5.0,13.0,84,0.00,,,0.16,0.000000,,2013-12-03 09:54:00,
2013-12-03 02:02:00,25.0,21.0,-100.00,NNE,25,5.0,13.0,84,0.00,,,0.16,0.000000,,2013-12-03 10:02:00,
2013-12-03 02:42:00,24.0,20.0,-100.00,NNE,27,4.0,14.0,86,0.00,,,0.11,0.000000,,2013-12-03 10:42:00,
2013-12-03 02:53:00,24.0,20.0,-100.00,NNE,27,4.0,14.0,86,0.00,,,0.11,0.000000,,2013-12-03 10:53:00,
2013-12-03 03:03:00,24.0,20.0,-100.00,NNE,27,4.0,14.0,86,0.00,,,0.11,0.000000,,2013-12-03 11:03:00,
2013-12-03 03:42:00,25.0,21.0,-100.00,NE,36,2.0,15.0,86,0.00,,,0.04,0.000000,,2013-12-03 11:42:00,
2013-12-03 03:52:00,25.0,21.0,-100.00,NE,36,2.0,15.0,86,0.00,,,0.04,0.000000,,2013-12-03 11:52:00,
2013-12-03 04:02:00,25.0,21.0,-100.00,NE,36,2.0,15.0,86,0.00,,,0.04,0.000000,,2013-12-03 12:02:00,
2013-12-03 04:42:00,23.0,20.0,-100.00,NE,42,0.0,9.0,89,0.00,,,0.01,0.000000,,2013-12-03 12:42:00,
2013-12-03 04:52:00,23.0,20.0,-100.00,NE,42,0.0,9.0,89,0.00,,,0.01,0.000000,,2013-12-03 12:52:00,
2013-12-03 05:01:00,23.0,20.0,-100.00,NE,42,0.0,9.0,89,0.00,,,0.01,0.000000,,2013-12-03 13:01:00,
2013-12-03 05:42:00,24.0,22.0,-100.00,NE,42,0.0,6.0,92,0.00,,,0.00,0.000000,,2013-12-03 13:42:00,
2013-12-03 05:52:00,24.0,22.0,-100.00,NE,42,0.0,6.0,92,0.00,,,0.00,0.000000,,2013-12-03 13:52:00,
2013-12-03 06:02:00,24.0,22.0,-100.00,NE,42,0.0,6.0,92,0.00,,,0.00,0.000000,,2013-12-03 14:02:00,
2013-12-03 06:42:00,24.0,22.0,-100.00,SSW,210,1.0,8.0,92,0.00,,,0.00,0.000000,,2013-12-03 14:42:00,
2013-12-03 06:52:00,24.0,22.0,-100.00,SSW,210,1.0,8.0,92,0.00,,,0.00,0.000000,,2013-12-03 14:52:00,
2013-12-03 07:02:00,24.0,22.0,-100.00,SSW,210,1.0,8.0,92,0.00,,,0.00,0.000000,,2013-12-03 15:02:00,
2013-12-03 07:43:00,23.0,20.0,-100.00,SW,231,3.0,6.0,88,0.00,,,0.00,0.000000,,2013-12-03 15:43:00,
2013-12-03 07:53:00,23.0,20.0,-100.00,SW,231,3.0,6.0,88,0.00,,,0.00,0.000000,,2013-12-03 15:53:00,
2013-12-03 08:03:00,23.0,20.0,-100.00,SW,231,3.0,6.0,88,0.00,,,0.00,0.000000,,2013-12-03 16:03:00,
2013-12-03 08:43:00,23.0,20.0,-100.00,WSW,253,0.0,9.0,89,0.00,,,0.00,3.000000,,2013-12-03 16:43:00,
2013-12-03 08:52:00,23.0,20.0,-100.00,WSW,253,0.0,9.0,89,0.00,,,0.00,3.000000,,2013-12-03 16:52:00,
2013-12-03 09:02:00,23.0,20.0,-100.00,WSW,253,0.0,9.0,89,0.00,,,0.00,3.000000,,2013-12-03 17:02:00,
2013-12-03 09:42:00,23.0,20.0,-100.00,West,261,0.0,6.0,88,0.00,,,0.00,12.000000,,2013-12-03 17:42:00,
2013-12-03 09:53:00,23.0,20.0,-100.00,West,261,0.0,6.0,88,0.00,,,0.00,12.000000,,2013-12-03 17:53:00,
2013-12-03 10:01:00,23.0,20.0,-100.00,West,261,0.0,6.0,88,0.00,,,0.00,12.000000,,2013-12-03 18:01:00,
2013-12-03 10:42:00,22.0,18.0,-100.00,West,261,2.0,8.0,85,0.00,,,0.00,18.000000,,2013-12-03 18:42:00,
2013-12-03 10:53:00,22.0,18.0,-100.00,West,261,2.0,8.0,85,0.00,,,0.00,18.000000,,2013-12-03 18:53:00,
2013-12-03 11:02:00,22.0,18.0,-100.00,West,261,2.0,8.0,85,0.00,,,0.00,18.000000,,2013-12-03 19:02:00,
2013-12-03 11:42:00,25.0,18.0,-100.00,WSW,252,2.0,9.0,73,0.00,,,0.00,96.000000,,2013-12-03 19:42:00,
2013-12-03 11:52:00,25.0,18.0,-100.00,WSW,252,2.0,9.0,73,0.00,,,0.00,96.000000,,2013-12-03 19:52:00,
2013-12-03 12:01:00,25.0,18.0,-100.00,WSW,252,2.0,9.0,73,0.00,,,0.00,96.000000,,2013-12-03 20:01:00,
2013-12-03 12:42:00,29.0,19.0,-100.00,WNW,284,0.0,8.0,66,0.00,,,0.00,67.000000,,2013-12-03 20:42:00,
2013-12-03 12:53:00,29.0,19.0,-100.00,WNW,284,0.0,8.0,66,0.00,,,0.00,67.000000,,2013-12-03 20:53:00,
2013-12-03 13:02:00,29.0,19.0,-100.00,WNW,284,0.0,8.0,66,0.00,,,0.00,67.000000,,2013-12-03 21:02:00,
2013-12-03 13:44:00,26.0,20.0,-100.00,WSW,255,2.0,8.0,79,0.00,,,0.00,449.000000,,2013-12-03 21:44:00,
2013-12-03 13:54:00,26.0,20.0,-100.00,WSW,255,2.0,8.0,79,0.00,,,0.00,449.000000,,2013-12-03 21:54:00,
2013-12-03 14:03:00,26.0,20.0,-100.00,WSW,255,2.0,8.0,79,0.00,,,0.00,449.000000,,2013-12-03 22:03:00,
2013-12-03 14:43:00,26.0,15.0,-100.00,West,267,0.0,8.0,62,0.00,,,0.00,92.000000,,2013-12-03 22:43:00,
2013-12-03 14:53:00,26.0,15.0,-100.00,West,267,0.0,8.0,62,0.00,,,0.00,92.000000,,2013-12-03 22:53:00,
2013-12-03 15:02:00,26.0,15.0,-100.00,West,267,0.0,8.0,62,0.00,,,0.00,92.000000,,2013-12-03 23:02:00,
2013-12-03 15:42:00,25.0,12.0,-100.00,West,263,1.0,7.0,56,0.00,,,0.00,60.000000,,2013-12-03 23:42:00,
2013-12-03 15:52:00,25.0,12.0,-100.00,West,263,1.0,7.0,56,0.00,,,0.00,60.000000,,2013-12-03 23:52:00,
2013-12-03 16:01:00,25.0,12.0,-100.00,West,263,1.0,7.0,56,0.00,,,0.00,60.000000,,2013-12-04 00:01:00,
2013-12-03 16:42:00,20.0,14.0,-100.00,West,274,0.0,7.0,78,0.00,,,0.00,6.000000,,2013-12-04 00:42:00,
2013-12-03 16:52:00,20.0,14.0,-100.00,West,274,0.0,7.0,78,0.00,,,0.00,6.000000,,2013-12-04 00:52:00,
2013-12-03 17:02:00,20.0,14.0,-100.00,West,274,0.0,7.0,78,0.00,,,0.00,6.000000,,2013-12-04 01:02:00,
2013-12-03 17:42:00,18.0,12.0,-100.00,West,274,1.0,5.0,77,0.00,,,0.00,0.000000,,2013-12-04 01:42:00,
2013-12-03 17:52:00,18.0,12.0,-100.00,West,274,1.0,5.0,77,0.00,,,0.00,0.000000,,2013-12-04 01:52:00,
2013-12-03 18:02:00,18.0,12.0,-100.00,West,274,1.0,5.0,77,0.00,,,0.00,0.000000,,2013-12-04 02:02:00,
2013-12-03 18:42:00,15.0,9.0,-100.00,West,274,0.0,6.0,76,0.00,,,0.00,0.000000,,2013-12-04 02:42:00,
2013-12-03 18:52:00,15.0,9.0,-100.00,West,274,0.0,6.0,76,0.00,,,0.00,0.000000,,2013-12-04 02:52:00,
2013-12-03 19:02:00,15.0,9.0,-100.00,West,274,0.0,6.0,76,0.00,,,0.00,0.000000,,2013-12-04 03:02:00,
2013-12-03 19:44:00,13.0,9.0,-100.00,West,274,0.0,5.0,83,0.00,,,0.00,0.000000,,2013-12-04 03:44:00,
2013-12-03 19:54:00,13.0,9.0,-100.00,West,274,0.0,5.0,83,0.00,,,0.00,0.000000,,2013-12-04 03:54:00,
2013-12-03 20:02:00,13.0,9.0,-100.00,West,274,0.0,5.0,83,0.00,,,0.00,0.000000,,2013-12-04 04:02:00,
2013-12-03 20:42:00,13.0,9.0,-100.00,West,274,0.0,0.0,84,0.00,,,0.00,0.000000,,2013-12-04 04:42:00,
2013-12-03 20:52:00,13.0,9.0,-100.00,West,274,0.0,0.0,84,0.00,,,0.00,0.000000,,2013-12-04 04:52:00,
2013-12-03 21:02:00,13.0,9.0,-100.00,West,274,0.0,0.0,84,0.00,,,0.00,0.000000,,2013-12-04 05:02:00,
2013-12-03 21:42:00,14.0,9.0,-100.00,West,274,0.0,2.0,80,0.00,,,0.00,0.000000,,2013-12-04 05:42:00,
2013-12-03 21:53:00,14.0,9.0,-100.00,West,274,0.0,2.0,80,0.00,,,0.00,0.000000,,2013-12-04 05:53:00,
2013-12-03 22:02:00,14.0,9.0,-100.00,West,274,0.0,2.0,80,0.00,,,0.00,0.000000,,2013-12-04 06:02:00,
2013-12-03 22:42:00,14.0,7.0,-100.00,West,274,0.0,4.0,74,0.00,,,0.00,0.000000,,2013-12-04 06:42:00,
2013-12-03 22:52:00,14.0,7.0,-100.00,West,274,0.0,4.0,74,0.00,,,0.00,0.000000,,2013-12-04 06:52:00,
2013-12-03 23:02:00,14.0,7.0,-100.00,West,274,0.0,4.0,74,0.00,,,0.00,0.000000,,2013-12-04 07:02:00,
2013-12-03 23:42:00,13.0,6.0,-100.00,West,274,0.0,5.0,72,0.00,,,0.00,0.000000,,2013-12-04 07:42:00,
2013-12-03 23:52:00,13.0,6.0,-100.00,West,274,0.0,5.0,72,0.00,,,0.00,0.000000,,2013-12-04 07:52:00,